Terminal Aerodrome Forecast
Issued by NWS Sterling, VA

Current Version | Previous Version | Text Only | Print | Product List | Glossary Off
Versions: 1 2 3 4 5 6 7 8 9 10 11 12 13 14 15 16 17 18 19 20 21 22 23

005
FTUS41 KLWX 191130
TAFIAD
TAF
KIAD 191130Z 1912/2018 30006KT P6SM BKN070
     FM191500 31011G19KT P6SM SCT100
     FM200000 31007KT P6SM FEW250
     FM201400 35008KT P6SM FEW140=

USA.gov is the U.S. government's official web portal to all federal, state and local government web resources and services.